contact:dominique.lefevre@mio.osupytheas.fr, maurice.libes@osupytheas.fr, didier.mallarino@osupytheas.fr
Project:EMSO http://www.emso-fr.org/EMSO-France
Depth: 2436.0 m
Title:EMSO Ligure Ouest : Data MII capteur MICROCAT
DateTime_Computer,Latitude,Longitude,Temperature,Conductivity,Pressure,DateTime_Instrument
DateTime_Computer,Latitude,Longitude,degC,S m-1,dbar,DateTime_Instrument
2023-02-15T00:02:48Z,42.805,6.029,13.3018,4.60073,2470.53,2023-2-15T02:05:11Z
2023-02-15T00:05:51Z,42.805,6.029,13.3019,4.60070,2470.52,2023-2-15T02:08:15Z
2023-02-15T00:08:54Z,42.805,6.029,13.3015,4.60070,2470.53,2023-2-15T02:11:18Z
2023-02-15T00:11:57Z,42.805,6.029,13.3018,4.60070,2470.53,2023-2-15T02:14:21Z
2023-02-15T00:15:00Z,42.805,6.029,13.3017,4.60073,2470.53,2023-2-15T02:17:24Z
2023-02-15T00:18:03Z,42.805,6.029,13.3017,4.60072,2470.53,2023-2-15T02:20:27Z
2023-02-15T00:21:06Z,42.805,6.029,13.3016,4.60074,2470.544,2023-2-15T02:23:30Z
2023-02-15T00:24:09Z,42.805,6.029,13.3025,4.60077,2470.53,2023-2-15T02:26:33Z
2023-02-15T00:27:12Z,42.805,6.029,13.3027,4.60122,2470.53,2023-2-15T02:29:36Z
2023-02-15T00:30:16Z,42.805,6.029,13.3027,4.60085,2470.52,2023-2-15T02:32:39Z
2023-02-15T00:33:19Z,42.805,6.029,13.3032,4.60076,2470.53,2023-2-15T02:35:42Z
2023-02-15T00:36:22Z,42.805,6.029,13.3034,4.60077,2470.507,2023-2-15T02:38:45Z
2023-02-15T00:39:25Z,42.805,6.029,13.3019,4.60072,2470.553,2023-2-15T02:41:48Z
2023-02-15T00:42:28Z,42.805,6.029,13.3015,4.60076,2470.567,2023-2-15T02:44:52Z
2023-02-15T00:45:31Z,42.805,6.029,13.3019,4.60073,2470.53,2023-2-15T02:47:55Z
2023-02-15T00:48:34Z,42.805,6.029,13.3019,4.60075,2470.507,2023-2-15T02:50:58Z
2023-02-15T00:51:37Z,42.805,6.029,13.3019,4.60071,2470.53,2023-2-15T02:54:01Z
2023-02-15T00:54:40Z,42.805,6.029,13.3024,4.60072,2470.507,2023-2-15T02:57:04Z
2023-02-15T00:57:43Z,42.805,6.029,13.3018,4.60077,2470.567,2023-2-15T03:00:07Z
2023-02-15T01:00:46Z,42.805,6.029,13.3020,4.60087,2470.553,2023-2-15T03:03:10Z
2023-02-15T01:03:49Z,42.805,6.029,13.3022,4.60091,2470.544,2023-2-15T03:06:13Z
2023-02-15T01:06:52Z,42.805,6.029,13.3046,4.60102,2470.53,2023-2-15T03:09:16Z
2023-02-15T01:09:56Z,42.805,6.029,13.3035,4.60125,2470.53,2023-2-15T03:12:19Z
2023-02-15T01:12:59Z,42.805,6.029,13.3040,4.60112,2470.544,2023-2-15T03:15:22Z
2023-02-15T01:16:02Z,42.805,6.029,13.3039,4.60113,2470.544,2023-2-15T03:18:25Z
2023-02-15T01:19:05Z,42.805,6.029,13.3030,4.60121,2470.567,2023-2-15T03:21:29Z
2023-02-15T01:22:08Z,42.805,6.029,13.3034,4.60099,2470.567,2023-2-15T03:24:32Z
2023-02-15T01:25:11Z,42.805,6.029,13.3030,4.60121,2470.507,2023-2-15T03:27:35Z
2023-02-15T01:28:14Z,42.805,6.029,13.3027,4.60105,2470.544,2023-2-15T03:30:38Z
2023-02-15T01:31:17Z,42.805,6.029,13.3029,4.60088,2470.553,2023-2-15T03:33:41Z
2023-02-15T01:34:20Z,42.805,6.029,13.3027,4.60104,2470.544,2023-2-15T03:36:44Z
2023-02-15T01:37:23Z,42.805,6.029,13.3034,4.60121,2470.53,2023-2-15T03:39:47Z
2023-02-15T01:40:26Z,42.805,6.029,13.3026,4.60108,2470.53,2023-2-15T03:42:50Z
2023-02-15T01:43:29Z,42.805,6.029,13.3034,4.60104,2470.553,2023-2-15T03:45:53Z
2023-02-15T01:46:32Z,42.805,6.029,13.3027,4.60097,2470.553,2023-2-15T03:48:56Z
2023-02-15T01:49:36Z,42.805,6.029,13.3028,4.60103,2470.507,2023-2-15T03:51:59Z
2023-02-15T01:52:39Z,42.805,6.029,13.3029,4.60105,2470.507,2023-2-15T03:55:02Z
2023-02-15T01:55:42Z,42.805,6.029,13.3035,4.60114,2470.567,2023-2-15T03:58:05Z
2023-02-15T01:58:45Z,42.805,6.029,13.3031,4.60093,2470.53,2023-2-15T04:01:09Z
2023-02-15T02:01:48Z,42.805,6.029,13.3032,4.60112,2470.553,2023-2-15T04:04:12Z
2023-02-15T02:04:51Z,42.805,6.029,13.3026,4.60103,2470.567,2023-2-15T04:07:15Z
2023-02-15T02:07:54Z,42.805,6.029,13.3036,4.60104,2470.516,2023-2-15T04:10:18Z
2023-02-15T02:10:57Z,42.805,6.029,13.3026,4.60095,2470.544,2023-2-15T04:13:21Z
2023-02-15T02:14:00Z,42.805,6.029,13.3039,4.60110,2470.544,2023-2-15T04:16:24Z
2023-02-15T02:17:03Z,42.805,6.029,13.3029,4.60108,2470.577,2023-2-15T04:19:27Z
2023-02-15T02:20:06Z,42.805,6.029,13.3033,4.60122,2470.567,2023-2-15T04:22:30Z
2023-02-15T02:23:09Z,42.805,6.029,13.3031,4.60092,2470.544,2023-2-15T04:25:33Z
2023-02-15T02:26:12Z,42.805,6.029,13.3025,4.60106,2470.553,2023-2-15T04:28:36Z
2023-02-15T02:29:16Z,42.805,6.029,13.3027,4.60112,2470.553,2023-2-15T04:31:39Z
2023-02-15T02:32:19Z,42.805,6.029,13.3031,4.60105,2470.591,2023-2-15T04:34:42Z
2023-02-15T02:35:22Z,42.805,6.029,13.3039,4.60119,2470.53,2023-2-15T04:37:46Z
2023-02-15T02:38:25Z,42.805,6.029,13.3031,4.60116,2470.53,2023-2-15T04:40:49Z
2023-02-15T02:41:28Z,42.805,6.029,13.3039,4.60114,2470.558,2023-2-15T04:43:52Z
2023-02-15T02:44:31Z,42.805,6.029,13.3030,4.60110,2470.53,2023-2-15T04:46:55Z
2023-02-15T02:47:34Z,42.805,6.029,13.3039,4.60111,2470.53,2023-2-15T04:49:58Z
2023-02-15T02:50:37Z,42.805,6.029,13.3027,4.60107,2470.553,2023-2-15T04:53:01Z
2023-02-15T02:53:40Z,42.805,6.029,13.3030,4.60119,2470.53,2023-2-15T04:56:04Z
2023-02-15T02:56:43Z,42.805,6.029,13.3026,4.60110,2470.553,2023-2-15T04:59:07Z
2023-02-15T02:59:46Z,42.805,6.029,13.3029,4.60099,2470.577,2023-2-15T05:02:10Z
2023-02-15T03:02:49Z,42.805,6.029,13.3032,4.60112,2470.553,2023-2-15T05:05:13Z
2023-02-15T03:05:53Z,42.805,6.029,13.3024,4.60117,2470.553,2023-2-15T05:08:16Z
2023-02-15T03:08:56Z,42.805,6.029,13.3031,4.60114,2470.553,2023-2-15T05:11:19Z
2023-02-15T03:11:59Z,42.805,6.029,13.3025,4.60110,2470.577,2023-2-15T05:14:22Z
2023-02-15T03:15:02Z,42.805,6.029,13.3034,4.60109,2470.577,2023-2-15T05:17:26Z
2023-02-15T03:18:05Z,42.805,6.029,13.3031,4.60127,2470.567,2023-2-15T05:20:29Z
2023-02-15T03:21:08Z,42.805,6.029,13.3036,4.60119,2470.53,2023-2-15T05:23:32Z
2023-02-15T03:24:11Z,42.805,6.029,13.3033,4.60105,2470.591,2023-2-15T05:26:35Z
2023-02-15T03:27:14Z,42.805,6.029,13.3034,4.60105,2470.553,2023-2-15T05:29:38Z
2023-02-15T03:30:17Z,42.805,6.029,13.3033,4.60114,2470.544,2023-2-15T05:32:41Z
2023-02-15T03:33:20Z,42.805,6.029,13.3031,4.60123,2470.553,2023-2-15T05:35:44Z
2023-02-15T03:36:23Z,42.805,6.029,13.3027,4.60096,2470.53,2023-2-15T05:38:47Z
2023-02-15T03:39:26Z,42.805,6.029,13.3031,4.60114,2470.53,2023-2-15T05:41:50Z
2023-02-15T03:42:30Z,42.805,6.029,13.3031,4.60111,2470.577,2023-2-15T05:44:53Z
2023-02-15T03:45:33Z,42.805,6.029,13.3033,4.60115,2470.577,2023-2-15T05:47:56Z
2023-02-15T03:48:36Z,42.805,6.029,13.3032,4.60099,2470.577,2023-2-15T05:50:59Z
2023-02-15T03:51:39Z,42.805,6.029,13.3031,4.60098,2470.553,2023-2-15T05:54:03Z
2023-02-15T03:54:42Z,42.805,6.029,13.3026,4.60116,2470.567,2023-2-15T05:57:06Z
2023-02-15T03:57:45Z,42.805,6.029,13.3036,4.60114,2470.567,2023-2-15T06:00:09Z
2023-02-15T04:00:48Z,42.805,6.029,13.3034,4.60117,2470.577,2023-2-15T06:03:12Z
2023-02-15T04:03:51Z,42.805,6.029,13.3033,4.60106,2470.544,2023-2-15T06:06:15Z
2023-02-15T04:06:54Z,42.805,6.029,13.3029,4.60104,2470.591,2023-2-15T06:09:18Z
2023-02-15T04:09:57Z,42.805,6.029,13.3029,4.60108,2470.577,2023-2-15T06:12:21Z
2023-02-15T04:13:00Z,42.805,6.029,13.3037,4.60118,2470.553,2023-2-15T06:15:24Z
2023-02-15T04:16:03Z,42.805,6.029,13.3029,4.60110,2470.553,2023-2-15T06:18:27Z
2023-02-15T04:19:06Z,42.805,6.029,13.3029,4.60128,2470.591,2023-2-15T06:21:30Z
2023-02-15T04:22:10Z,42.805,6.029,13.3029,4.60111,2470.577,2023-2-15T06:24:33Z
2023-02-15T04:25:13Z,42.805,6.029,13.3036,4.60119,2470.53,2023-2-15T06:27:36Z
2023-02-15T04:28:16Z,42.805,6.029,13.3033,4.60119,2470.53,2023-2-15T06:30:39Z
2023-02-15T04:31:19Z,42.805,6.029,13.3036,4.60122,2470.53,2023-2-15T06:33:43Z
2023-02-15T04:34:22Z,42.805,6.029,13.3036,4.60117,2470.553,2023-2-15T06:36:46Z
2023-02-15T04:37:25Z,42.805,6.029,13.3030,4.60127,2470.577,2023-2-15T06:39:49Z
2023-02-15T04:40:28Z,42.805,6.029,13.3028,4.60122,2470.577,2023-2-15T06:42:52Z
2023-02-15T04:43:31Z,42.805,6.029,13.3046,4.60126,2470.567,2023-2-15T06:45:55Z
2023-02-15T04:46:34Z,42.805,6.029,13.3041,4.60138,2470.614,2023-2-15T06:48:58Z
2023-02-15T04:49:37Z,42.805,6.029,13.3043,4.60126,2470.591,2023-2-15T06:52:01Z
2023-02-15T04:52:40Z,42.805,6.029,13.3033,4.60126,2470.553,2023-2-15T06:55:04Z
2023-02-15T04:55:43Z,42.805,6.029,13.3040,4.60110,2470.577,2023-2-15T06:58:07Z
2023-02-15T04:58:46Z,42.805,6.029,13.3036,4.60129,2470.591,2023-2-15T07:01:10Z
2023-02-15T05:01:50Z,42.805,6.029,13.3039,4.60125,2470.577,2023-2-15T07:04:13Z
2023-02-15T05:04:53Z,42.805,6.029,13.3033,4.60119,2470.577,2023-2-15T07:07:16Z
2023-02-15T05:07:56Z,42.805,6.029,13.3041,4.60129,2470.553,2023-2-15T07:10:20Z
2023-02-15T05:10:59Z,42.805,6.029,13.3026,4.60132,2470.53,2023-2-15T07:13:23Z
2023-02-15T05:14:02Z,42.805,6.029,13.3032,4.60131,2470.553,2023-2-15T07:16:26Z
2023-02-15T05:17:05Z,42.805,6.029,13.3041,4.60125,2470.591,2023-2-15T07:19:29Z
2023-02-15T05:20:08Z,42.805,6.029,13.3039,4.60136,2470.567,2023-2-15T07:22:32Z
2023-02-15T05:23:11Z,42.805,6.029,13.3029,4.60127,2470.567,2023-2-15T07:25:35Z
2023-02-15T05:26:14Z,42.805,6.029,13.3034,4.60127,2470.567,2023-2-15T07:28:38Z
2023-02-15T05:29:17Z,42.805,6.029,13.3029,4.60114,2470.553,2023-2-15T07:31:41Z
2023-02-15T05:32:20Z,42.805,6.029,13.3037,4.60121,2470.567,2023-2-15T07:34:44Z
2023-02-15T05:35:23Z,42.805,6.029,13.3038,4.60151,2470.53,2023-2-15T07:37:47Z
2023-02-15T05:38:26Z,42.805,6.029,13.3028,4.60102,2470.53,2023-2-15T07:40:50Z
2023-02-15T05:41:30Z,42.805,6.029,13.3033,4.60131,2470.553,2023-2-15T07:43:53Z
2023-02-15T05:44:33Z,42.805,6.029,13.3028,4.60105,2470.544,2023-2-15T07:46:56Z
2023-02-15T05:47:36Z,42.805,6.029,13.3036,4.60110,2470.544,2023-2-15T07:50:00Z
2023-02-15T05:50:39Z,42.805,6.029,13.3045,4.60126,2470.553,2023-2-15T07:53:03Z
2023-02-15T05:54:27Z,42.805,6.029,13.3037,4.60127,2470.553,2023-2-15T07:56:06Z
2023-02-15T05:56:46Z,42.805,6.029,13.3039,4.60136,2470.567,2023-2-15T07:59:10Z
2023-02-15T05:59:49Z,42.805,6.029,13.3034,4.60121,2470.567,2023-2-15T08:02:13Z
2023-02-15T06:02:52Z,42.805,6.029,13.3033,4.60103,2470.53,2023-2-15T08:05:16Z
2023-02-15T06:05:55Z,42.805,6.029,13.3036,4.60110,2470.544,2023-2-15T08:08:19Z
2023-02-15T06:08:59Z,42.805,6.029,13.3032,4.60108,2470.591,2023-2-15T08:11:22Z
2023-02-15T06:12:02Z,42.805,6.029,13.3039,4.60127,2470.567,2023-2-15T08:14:25Z
2023-02-15T06:15:05Z,42.805,6.029,13.3039,4.60115,2470.553,2023-2-15T08:17:29Z
2023-02-15T06:18:08Z,42.805,6.029,13.3039,4.60120,2470.53,2023-2-15T08:20:32Z
2023-02-15T06:21:11Z,42.805,6.029,13.3029,4.60103,2470.553,2023-2-15T08:23:35Z
2023-02-15T06:24:14Z,42.805,6.029,13.3039,4.60111,2470.553,2023-2-15T08:26:38Z
2023-02-15T06:27:17Z,42.805,6.029,13.3034,4.60098,2470.553,2023-2-15T08:29:41Z
2023-02-15T06:30:20Z,42.805,6.029,13.3037,4.60147,2470.553,2023-2-15T08:32:44Z
2023-02-15T06:33:23Z,42.805,6.029,13.3041,4.60138,2470.53,2023-2-15T08:35:47Z
2023-02-15T06:36:26Z,42.805,6.029,13.3035,4.60144,2470.553,2023-2-15T08:38:50Z
2023-02-15T06:39:29Z,42.805,6.029,13.3038,4.60107,2470.544,2023-2-15T08:41:53Z
2023-02-15T06:42:32Z,42.805,6.029,13.3042,4.60122,2470.544,2023-2-15T08:44:56Z
2023-02-15T06:45:35Z,42.805,6.029,13.3048,4.60147,2470.53,2023-2-15T08:47:59Z
2023-02-15T06:48:39Z,42.805,6.029,13.3046,4.60133,2470.577,2023-2-15T08:51:02Z
2023-02-15T06:51:42Z,42.805,6.029,13.3066,4.60150,2470.567,2023-2-15T08:54:05Z
2023-02-15T06:54:45Z,42.805,6.029,13.3051,4.60172,2470.553,2023-2-15T08:57:09Z
2023-02-15T06:57:48Z,42.805,6.029,13.3060,4.60152,2470.553,2023-2-15T09:00:12Z
2023-02-15T07:00:51Z,42.805,6.029,13.3053,4.60143,2470.53,2023-2-15T09:03:15Z
2023-02-15T07:03:54Z,42.805,6.029,13.3052,4.60122,2470.567,2023-2-15T09:06:18Z
2023-02-15T07:06:57Z,42.805,6.029,13.3044,4.60173,2470.567,2023-2-15T09:09:21Z
2023-02-15T07:10:00Z,42.805,6.029,13.3069,4.60132,2470.544,2023-2-15T09:12:24Z
2023-02-15T07:13:03Z,42.805,6.029,13.3067,4.60140,2470.507,2023-2-15T09:15:27Z
2023-02-15T07:16:06Z,42.805,6.029,13.3051,4.60158,2470.558,2023-2-15T09:18:30Z
2023-02-15T07:19:09Z,42.805,6.029,13.3055,4.60137,2470.53,2023-2-15T09:21:33Z
2023-02-15T07:22:12Z,42.805,6.029,13.3056,4.60147,2470.567,2023-2-15T09:24:36Z
2023-02-15T07:25:15Z,42.805,6.029,13.3051,4.60127,2470.507,2023-2-15T09:27:39Z
2023-02-15T07:28:19Z,42.805,6.029,13.3047,4.60129,2470.544,2023-2-15T09:30:42Z
2023-02-15T07:31:22Z,42.805,6.029,13.3047,4.60134,2470.52,2023-2-15T09:33:46Z
2023-02-15T07:34:25Z,42.805,6.029,13.3058,4.60157,2470.53,2023-2-15T09:36:49Z
2023-02-15T07:37:28Z,42.805,6.029,13.3039,4.60140,2470.539,2023-2-15T09:39:52Z
2023-02-15T07:40:31Z,42.805,6.029,13.3041,4.60151,2470.544,2023-2-15T09:42:55Z
2023-02-15T07:43:34Z,42.805,6.029,13.3038,4.60155,2470.544,2023-2-15T09:45:58Z
2023-02-15T07:46:37Z,42.805,6.029,13.3034,4.60119,2470.53,2023-2-15T09:49:01Z
2023-02-15T07:49:40Z,42.805,6.029,13.3062,4.60117,2470.52,2023-2-15T09:52:04Z
2023-02-15T07:52:43Z,42.805,6.029,13.3056,4.60133,2470.553,2023-2-15T09:55:07Z
2023-02-15T07:55:46Z,42.805,6.029,13.3052,4.60166,2470.507,2023-2-15T09:58:10Z
2023-02-15T07:58:49Z,42.805,6.029,13.3043,4.60157,2470.483,2023-2-15T10:01:13Z
2023-02-15T08:01:52Z,42.805,6.029,13.3051,4.60175,2470.53,2023-2-15T10:04:16Z
2023-02-15T08:04:55Z,42.805,6.029,13.3041,4.60170,2470.53,2023-2-15T10:07:19Z
2023-02-15T08:07:59Z,42.805,6.029,13.3055,4.60119,2470.52,2023-2-15T10:10:22Z
2023-02-15T08:11:02Z,42.805,6.029,13.3049,4.60142,2470.52,2023-2-15T10:13:26Z
2023-02-15T08:14:05Z,42.805,6.029,13.3037,4.60170,2470.544,2023-2-15T10:16:29Z
2023-02-15T08:17:08Z,42.805,6.029,13.3048,4.60132,2470.53,2023-2-15T10:19:32Z
2023-02-15T08:20:11Z,42.805,6.029,13.3054,4.60094,2470.52,2023-2-15T10:22:35Z
2023-02-15T08:23:14Z,42.805,6.029,13.3059,4.60104,2470.507,2023-2-15T10:25:38Z
2023-02-15T08:26:17Z,42.805,6.029,13.3044,4.60104,2470.52,2023-2-15T10:28:41Z
2023-02-15T08:29:20Z,42.805,6.029,13.3071,4.60110,2470.507,2023-2-15T10:31:44Z
2023-02-15T08:32:23Z,42.805,6.029,13.3045,4.60116,2470.507,2023-2-15T10:34:47Z
2023-02-15T08:35:26Z,42.805,6.029,13.3038,4.60117,2470.52,2023-2-15T10:37:50Z
2023-02-15T08:38:29Z,42.805,6.029,13.3049,4.60121,2470.507,2023-2-15T10:40:53Z
2023-02-15T08:41:33Z,42.805,6.029,13.3054,4.60108,2470.497,2023-2-15T10:43:56Z
2023-02-15T08:44:36Z,42.805,6.029,13.3054,4.60114,2470.52,2023-2-15T10:47:00Z
2023-02-15T08:47:39Z,42.805,6.029,13.3054,4.60162,2470.52,2023-2-15T10:50:03Z
2023-02-15T08:50:42Z,42.805,6.029,13.3066,4.60105,2470.507,2023-2-15T10:53:06Z
2023-02-15T08:53:45Z,42.805,6.029,13.3062,4.60101,2470.52,2023-2-15T10:56:09Z
2023-02-15T08:56:48Z,42.805,6.029,13.3059,4.60113,2470.53,2023-2-15T10:59:12Z
2023-02-15T08:59:51Z,42.805,6.029,13.3073,4.60089,2470.507,2023-2-15T11:02:15Z
2023-02-15T09:02:54Z,42.805,6.029,13.3059,4.60091,2470.53,2023-2-15T11:05:18Z
2023-02-15T09:05:57Z,42.805,6.029,13.3064,4.60089,2470.52,2023-2-15T11:08:21Z
2023-02-15T09:09:00Z,42.805,6.029,13.3061,4.60099,2470.53,2023-2-15T11:11:24Z
2023-02-15T09:12:03Z,42.805,6.029,13.3043,4.60085,2470.53,2023-2-15T11:14:27Z
2023-02-15T09:15:07Z,42.805,6.029,13.3067,4.60099,2470.53,2023-2-15T11:17:30Z
2023-02-15T09:18:10Z,42.805,6.029,13.3049,4.60138,2470.53,2023-2-15T11:20:33Z
2023-02-15T09:21:13Z,42.805,6.029,13.3054,4.60151,2470.544,2023-2-15T11:23:37Z
2023-02-15T09:24:16Z,42.805,6.029,13.3065,4.60114,2470.53,2023-2-15T11:26:40Z
2023-02-15T09:27:19Z,42.805,6.029,13.3062,4.60113,2470.553,2023-2-15T11:29:43Z
2023-02-15T09:30:22Z,42.805,6.029,13.3063,4.60151,2470.507,2023-2-15T11:32:46Z
2023-02-15T09:33:25Z,42.805,6.029,13.3057,4.60125,2470.544,2023-2-15T11:35:49Z
2023-02-15T09:36:28Z,42.805,6.029,13.3071,4.60140,2470.53,2023-2-15T11:38:52Z
2023-02-15T09:39:31Z,42.805,6.029,13.3086,4.60143,2470.483,2023-2-15T11:41:55Z
2023-02-15T09:42:34Z,42.805,6.029,13.3093,4.60156,2470.53,2023-2-15T11:44:58Z
2023-02-15T09:45:37Z,42.805,6.029,13.3096,4.60140,2470.53,2023-2-15T11:48:01Z
2023-02-15T09:48:40Z,42.805,6.029,13.3098,4.60107,2470.544,2023-2-15T11:51:04Z
2023-02-15T09:51:43Z,42.805,6.029,13.3099,4.60102,2470.53,2023-2-15T11:54:07Z
2023-02-15T09:54:47Z,42.805,6.029,13.3098,4.60136,2470.53,2023-2-15T11:57:11Z
2023-02-15T09:57:50Z,42.805,6.029,13.3107,4.60109,2470.544,2023-2-15T12:00:14Z
2023-02-15T10:00:53Z,42.805,6.029,13.3029,4.60117,2470.52,2023-2-15T12:03:17Z
2023-02-15T10:03:56Z,42.805,6.029,13.3027,4.60092,2470.553,2023-2-15T12:06:20Z
2023-02-15T10:06:59Z,42.805,6.029,13.3040,4.60106,2470.52,2023-2-15T12:09:23Z
2023-02-15T10:10:02Z,42.805,6.029,13.3054,4.60126,2470.544,2023-2-15T12:12:26Z
2023-02-15T10:13:05Z,42.805,6.029,13.3060,4.60123,2470.507,2023-2-15T12:15:29Z
2023-02-15T10:16:08Z,42.805,6.029,13.3055,4.60113,2470.544,2023-2-15T12:18:32Z
2023-02-15T10:19:11Z,42.805,6.029,13.3042,4.60102,2470.544,2023-2-15T12:21:35Z
2023-02-15T10:22:14Z,42.805,6.029,13.3024,4.60100,2470.553,2023-2-15T12:24:38Z
2023-02-15T10:25:17Z,42.805,6.029,13.3054,4.60102,2470.53,2023-2-15T12:27:41Z
2023-02-15T10:28:21Z,42.805,6.029,13.3054,4.60135,2470.544,2023-2-15T12:30:44Z
2023-02-15T10:31:24Z,42.805,6.029,13.3061,4.60102,2470.544,2023-2-15T12:33:48Z
2023-02-15T10:34:27Z,42.805,6.029,13.3027,4.60097,2470.53,2023-2-15T12:36:51Z
2023-02-15T10:37:30Z,42.805,6.029,13.3034,4.60121,2470.567,2023-2-15T12:39:54Z
2023-02-15T10:40:33Z,42.805,6.029,13.3026,4.60087,2470.553,2023-2-15T12:42:57Z
2023-02-15T10:43:36Z,42.805,6.029,13.3023,4.60089,2470.53,2023-2-15T12:46:00Z
2023-02-15T10:46:39Z,42.805,6.029,13.3025,4.60125,2470.577,2023-2-15T12:49:03Z
2023-02-15T10:49:42Z,42.805,6.029,13.3057,4.60106,2470.53,2023-2-15T12:52:06Z
2023-02-15T10:52:45Z,42.805,6.029,13.3044,4.60099,2470.539,2023-2-15T12:55:09Z
2023-02-15T10:55:48Z,42.805,6.029,13.3037,4.60087,2470.553,2023-2-15T12:58:12Z
2023-02-15T10:58:51Z,42.805,6.029,13.3029,4.60081,2470.553,2023-2-15T13:01:15Z
2023-02-15T11:01:54Z,42.805,6.029,13.3033,4.60091,2470.544,2023-2-15T13:04:18Z
2023-02-15T11:04:58Z,42.805,6.029,13.3021,4.60095,2470.544,2023-2-15T13:07:21Z
2023-02-15T11:08:01Z,42.805,6.029,13.3032,4.60089,2470.553,2023-2-15T13:10:25Z
2023-02-15T11:11:04Z,42.805,6.029,13.3034,4.60085,2470.553,2023-2-15T13:13:28Z
2023-02-15T11:14:07Z,42.805,6.029,13.3029,4.60085,2470.544,2023-2-15T13:16:31Z
2023-02-15T11:17:10Z,42.805,6.029,13.3024,4.60081,2470.567,2023-2-15T13:19:34Z
2023-02-15T11:20:13Z,42.805,6.029,13.3043,4.60079,2470.567,2023-2-15T13:22:37Z
2023-02-15T11:23:16Z,42.805,6.029,13.3031,4.60084,2470.553,2023-2-15T13:25:40Z
2023-02-15T11:26:19Z,42.805,6.029,13.3026,4.60088,2470.53,2023-2-15T13:28:43Z
2023-02-15T11:29:22Z,42.805,6.029,13.3049,4.60107,2470.567,2023-2-15T13:31:46Z
2023-02-15T11:32:25Z,42.805,6.029,13.3054,4.60109,2470.53,2023-2-15T13:34:49Z
2023-02-15T11:35:28Z,42.805,6.029,13.3054,4.60099,2470.53,2023-2-15T13:37:52Z
2023-02-15T11:38:31Z,42.805,6.029,13.3063,4.60129,2470.553,2023-2-15T13:40:55Z
2023-02-15T11:41:35Z,42.805,6.029,13.3060,4.60127,2470.53,2023-2-15T13:43:59Z
2023-02-15T11:44:38Z,42.805,6.029,13.3056,4.60154,2470.53,2023-2-15T13:47:02Z
2023-02-15T11:47:41Z,42.805,6.029,13.3066,4.60167,2470.577,2023-2-15T13:50:05Z
2023-02-15T11:50:44Z,42.805,6.029,13.3057,4.60112,2470.567,2023-2-15T13:53:08Z
2023-02-15T11:53:47Z,42.805,6.029,13.3069,4.60144,2470.567,2023-2-15T13:56:11Z
2023-02-15T11:56:50Z,42.805,6.029,13.3056,4.60108,2470.591,2023-2-15T13:59:14Z
2023-02-15T11:59:53Z,42.805,6.029,13.3055,4.60163,2470.577,2023-2-15T14:02:17Z
2023-02-15T12:02:56Z,42.805,6.029,13.3046,4.60141,2470.553,2023-2-15T14:05:20Z
2023-02-15T12:05:59Z,42.805,6.029,13.3048,4.60150,2470.577,2023-2-15T14:08:23Z
2023-02-15T12:09:02Z,42.805,6.029,13.3051,4.60147,2470.553,2023-2-15T14:11:26Z
2023-02-15T12:12:05Z,42.805,6.029,13.3046,4.60154,2470.577,2023-2-15T14:14:29Z
2023-02-15T12:15:08Z,42.805,6.029,13.3056,4.60114,2470.577,2023-2-15T14:17:32Z
2023-02-15T12:18:12Z,42.805,6.029,13.3058,4.60155,2470.567,2023-2-15T14:20:36Z
2023-02-15T12:21:15Z,42.805,6.029,13.3051,4.60143,2470.577,2023-2-15T14:23:39Z
2023-02-15T12:24:18Z,42.805,6.029,13.3063,4.60137,2470.591,2023-2-15T14:26:42Z
2023-02-15T12:27:21Z,42.805,6.029,13.3049,4.60138,2470.577,2023-2-15T14:29:45Z
2023-02-15T12:30:24Z,42.805,6.029,13.3047,4.60112,2470.567,2023-2-15T14:32:48Z
2023-02-15T12:33:27Z,42.805,6.029,13.3089,4.60150,2470.53,2023-2-15T14:35:51Z
2023-02-15T12:36:30Z,42.805,6.029,13.3057,4.60155,2470.553,2023-2-15T14:38:54Z
2023-02-15T12:39:33Z,42.805,6.029,13.3048,4.60129,2470.567,2023-2-15T14:41:57Z
2023-02-15T12:42:36Z,42.805,6.029,13.3056,4.60126,2470.553,2023-2-15T14:45:00Z
2023-02-15T12:45:39Z,42.805,6.029,13.3054,4.60107,2470.567,2023-2-15T14:48:03Z
2023-02-15T12:48:42Z,42.805,6.029,13.3055,4.60116,2470.567,2023-2-15T14:51:06Z
2023-02-15T12:51:45Z,42.805,6.029,13.3046,4.60121,2470.567,2023-2-15T14:54:09Z
2023-02-15T12:54:49Z,42.805,6.029,13.3045,4.60137,2470.567,2023-2-15T14:57:13Z
2023-02-15T12:57:52Z,42.805,6.029,13.3048,4.60133,2470.567,2023-2-15T15:00:16Z
2023-02-15T13:00:55Z,42.805,6.029,13.3050,4.60145,2470.567,2023-2-15T15:03:19Z
2023-02-15T13:03:58Z,42.805,6.029,13.3048,4.60117,2470.553,2023-2-15T15:06:22Z
2023-02-15T13:07:01Z,42.805,6.029,13.3058,4.60135,2470.553,2023-2-15T15:09:25Z
2023-02-15T13:10:04Z,42.805,6.029,13.3045,4.60107,2470.614,2023-2-15T15:12:28Z
2023-02-15T13:13:07Z,42.805,6.029,13.3052,4.60094,2470.614,2023-2-15T15:15:31Z
2023-02-15T13:16:10Z,42.805,6.029,13.3046,4.60114,2470.577,2023-2-15T15:18:34Z
2023-02-15T13:19:13Z,42.805,6.029,13.3048,4.60117,2470.577,2023-2-15T15:21:37Z
2023-02-15T13:22:16Z,42.805,6.029,13.3051,4.60106,2470.577,2023-2-15T15:24:40Z
2023-02-15T13:25:19Z,42.805,6.029,13.3051,4.60119,2470.553,2023-2-15T15:27:43Z
2023-02-15T13:28:22Z,42.805,6.029,13.3051,4.60132,2470.591,2023-2-15T15:30:46Z
2023-02-15T13:31:26Z,42.805,6.029,13.3049,4.60115,2470.553,2023-2-15T15:33:50Z
2023-02-15T13:34:29Z,42.805,6.029,13.3057,4.60125,2470.553,2023-2-15T15:36:53Z
2023-02-15T13:37:32Z,42.805,6.029,13.3058,4.60123,2470.553,2023-2-15T15:39:56Z
2023-02-15T13:40:35Z,42.805,6.029,13.3056,4.60115,2470.553,2023-2-15T15:42:59Z
2023-02-15T13:43:38Z,42.805,6.029,13.3061,4.60102,2470.553,2023-2-15T15:46:02Z
2023-02-15T13:46:41Z,42.805,6.029,13.3049,4.60152,2470.553,2023-2-15T15:49:05Z
2023-02-15T13:49:44Z,42.805,6.029,13.3046,4.60115,2470.577,2023-2-15T15:52:08Z
2023-02-15T13:52:47Z,42.805,6.029,13.3044,4.60135,2470.553,2023-2-15T15:55:11Z
2023-02-15T13:55:50Z,42.805,6.029,13.3045,4.60098,2470.553,2023-2-15T15:58:14Z
2023-02-15T13:58:53Z,42.805,6.029,13.3046,4.60159,2470.553,2023-2-15T16:01:17Z
2023-02-15T14:01:56Z,42.805,6.029,13.3040,4.60144,2470.53,2023-2-15T16:04:20Z
2023-02-15T14:04:59Z,42.805,6.029,13.3046,4.60130,2470.567,2023-2-15T16:07:24Z
2023-02-15T14:08:03Z,42.805,6.029,13.3054,4.60142,2470.577,2023-2-15T16:10:27Z
2023-02-15T14:11:06Z,42.805,6.029,13.3040,4.60136,2470.553,2023-2-15T16:13:30Z
2023-02-15T14:14:09Z,42.805,6.029,13.3054,4.60146,2470.567,2023-2-15T16:16:33Z
2023-02-15T14:17:12Z,42.805,6.029,13.3040,4.60142,2470.553,2023-2-15T16:19:36Z
2023-02-15T14:20:15Z,42.805,6.029,13.3057,4.60133,2470.553,2023-2-15T16:22:39Z
2023-02-15T14:23:18Z,42.805,6.029,13.3044,4.60151,2470.553,2023-2-15T16:25:42Z
2023-02-15T14:26:21Z,42.805,6.029,13.3039,4.60140,2470.567,2023-2-15T16:28:45Z
2023-02-15T14:29:24Z,42.805,6.029,13.3046,4.60126,2470.591,2023-2-15T16:31:48Z
2023-02-15T14:32:27Z,42.805,6.029,13.3042,4.60137,2470.553,2023-2-15T16:34:51Z
2023-02-15T14:35:30Z,42.805,6.029,13.3043,4.60144,2470.567,2023-2-15T16:37:54Z
2023-02-15T14:38:33Z,42.805,6.029,13.3051,4.60129,2470.6,2023-2-15T16:40:57Z
2023-02-15T14:41:36Z,42.805,6.029,13.3065,4.60097,2470.567,2023-2-15T16:44:01Z
2023-02-15T14:44:40Z,42.805,6.029,13.3043,4.60121,2470.553,2023-2-15T16:47:04Z
2023-02-15T14:47:43Z,42.805,6.029,13.3040,4.60135,2470.553,2023-2-15T16:50:07Z
2023-02-15T14:50:46Z,42.805,6.029,13.3051,4.60137,2470.553,2023-2-15T16:53:10Z
2023-02-15T14:53:49Z,42.805,6.029,13.3051,4.60132,2470.567,2023-2-15T16:56:13Z
2023-02-15T14:56:52Z,42.805,6.029,13.3055,4.60132,2470.591,2023-2-15T16:59:16Z
2023-02-15T14:59:55Z,42.805,6.029,13.3046,4.60111,2470.567,2023-2-15T17:02:19Z
2023-02-15T15:02:58Z,42.805,6.029,13.3051,4.60102,2470.591,2023-2-15T17:05:22Z
2023-02-15T15:06:01Z,42.805,6.029,13.3043,4.60140,2470.567,2023-2-15T17:08:25Z
2023-02-15T15:09:04Z,42.805,6.029,13.3052,4.60140,2470.577,2023-2-15T17:11:28Z
2023-02-15T15:12:07Z,42.805,6.029,13.3049,4.60155,2470.591,2023-2-15T17:14:31Z